Find Starlink 35366

NORAD ID: 66512 Int'l Des: 2025-263 Owner: SPXS Country: US Constellation: starlink operational
LEOCIRCULAR

Current View

Loading 3D Globe...

About Starlink 35366

Description loading...

Upcoming Passes

Passes for default location (London). Set your location on the main map for personalized predictions.

Altitude History

Loading altitude history...

Two-Line Element Set

1 66512U 25263AD 26146.07701392 .00018588 00000-0 68278-3 0 9990
2 66512 43.0020 273.7027 0001631 276.0352 84.0314 15.27604496 30732
Epoch: May 26, 2026 • Age: 11 hours

Current Status

Altitude 483.4 km
Velocity 7.63 km/s
Sub-Earth Point 25.16°N, 137.98°W
Launch Date Nov 15, 2025
Age 0.5 years
Type internet

Technical Details

Classification Payload
Mass 575.00 kg
Dry Mass 530.00 kg
Total Mass 575.00 kg
Length 0.30 m
Diameter 4.10 m
Span 29.00 m
Shape Box + pan
Manufacturer SPXS
Bus Type Starlink V2MO
Phase Status In Orbit
Owner/State SPXS/US

Most Searched